Liberia, Costa Rica

12:03 AM CST on August 21, 2017 (GMT -0600)
Daniel Oduber Quiros International

Weather History for MRLB - January, 2013

Change the Weather History Date:

Saturday, January 5, 2013

  Actual Average Record
Temperature  
Mean Temperature 86 °F -  
Max Temperature 93 °F 88 °F 95 °F (2014)
Min Temperature 78 °F 73 °F 64 °F (2012)
Cooling Degree Days 20    
Growing Degree Days 36 (Base 50)    
Moisture  
Dew Point 64 °F    
Average Humidity 47    
Maximum Humidity 61    
Minimum Humidity 26    
Precipitation  
Precipitation 0.00 in - - ()
Sea Level Pressure  
Sea Level Pressure 29.83 in    
Wind  
Wind Speed 18 mph ()    
Max Wind Speed 26 mph    
Max Gust Speed 36 mph    
Visibility 8.3 miles    
Events      
Averages and records for this station are not official NWS values.
T = Trace of Precipitation, MM = Missing Value Source: Averaged Metar Reports

Daily Weather History Graph

Daily Weather History Graph

Search for Another Location

Airport or City:

Trip Planner

Search our weather history database for the weather conditions in past years. The results will help you decide how hot, cold, wet, or windy it might be!

Date:

Astronomy

Jan. 05, 2013 Rise Set
Actual Time 6:01 AM CST 5:33 PM CST
Civil Twilight 5:39 AM CST 5:56 PM CST
Nautical Twilight 5:12 AM CST 6:22 PM CST
Astronomical Twilight 4:46 AM CST 6:48 PM CST
Moon No Moon Rise 11:52 AM CST (1/5)
Length of Visible Light 12h 17m
Length of Day
11h 31m
Last Quarter, 44% of the Moon is Illuminated
Jan 5
Last Quarter
Jan 11
New
Jan 18
First Quarter
Jan 26
Full
Feb 3
Last Quarter

Hourly Weather History & Observations

Time (CST) Temp. Heat Index Dew Point Humidity Pressure Visibility Wind Dir Wind Speed Gust Speed Precip Events Conditions
6:00 AM 79 °F - 65 °F 54% 29.84 in 12 mi ENE 23.0 mph - -   Clear
6:00 AM 78.8 °F - 64.4 °F 61% 29.83 in - ENE 23.0 mph 34.5 mph N/A   Clear
7:00 AM 80.6 °F 82.3 °F 64.4 °F 58% 29.87 in - East 15.0 mph - N/A   Clear
8:00 AM 84.2 °F 85.6 °F 64.4 °F 51% 29.88 in - ENE 20.7 mph 32.2 mph N/A   Clear
9:00 AM 86 °F - 66 °F 41% 29.91 in 12 mi ENE 24.2 mph - -   Scattered Clouds
9:00 AM 86.0 °F 88.2 °F 66.2 °F 51% 29.89 in 6.2 mi ENE 24.2 mph 35.7 mph N/A   Partly Cloudy
10:00 AM 87.8 °F 89.4 °F 64.4 °F 46% 29.89 in 6.2 mi NE 26.5 mph - N/A   Partly Cloudy
11:00 AM 89.6 °F 92.2 °F 66.2 °F 46% 29.88 in 6.2 mi NE 21.9 mph 33.4 mph N/A   Scattered Clouds
12:00 PM 90 °F - 63 °F 30% 29.86 in 12 mi ENE 18.4 mph - -   Scattered Clouds
12:00 PM 89.6 °F 90.1 °F 62.6 °F 40% 29.85 in 6.2 mi ENE 18.4 mph - N/A   Partly Cloudy
1:00 PM 89.6 °F 91.1 °F 64.4 °F 43% 29.81 in 6.2 mi NE 19.6 mph - N/A   Partly Cloudy
2:00 PM 91.4 °F 91.4 °F 60.8 °F 36% 29.78 in 6.2 mi ENE 17.3 mph - N/A   Partly Cloudy
3:00 PM 91 °F - 61 °F 26% 29.78 in 12 mi NE 20.7 mph - -   Scattered Clouds
3:00 PM 91.4 °F 91.4 °F 60.8 °F 36% 29.77 in 6.2 mi NE 20.7 mph - N/A   Partly Cloudy
4:00 PM 89.6 °F 89.5 °F 60.8 °F 38% 29.77 in 6.2 mi ENE 20.7 mph - N/A   Partly Cloudy
5:00 PM 86.0 °F 88.2 °F 66.2 °F 51% 29.79 in 6.2 mi NE 18.4 mph - N/A   Partly Cloudy
6:00 PM 82 °F - 65 °F 47% 29.81 in 12 mi ENE 16.1 mph - -   Clear
6:00 PM 82.4 °F 83.9 °F 64.4 °F 54% 29.80 in - ENE 16.1 mph - N/A   Clear
7:00 PM 80.6 °F 82.7 °F 66.2 °F 61% 29.81 in - ENE 15.0 mph - N/A   Clear
8:00 PM 80.6 °F 82.7 °F 66.2 °F 61% 29.84 in - ENE 15.0 mph - N/A   Clear